Estación Meteorológica de la Universidad de Murcia
Estación Meteorológica de la Universidad de Murcia
Universidad de Murcia
 

Temperatura y Humedad del sueloTemperatura y Humedad del suelo

 

Temperatura del suelo máxima: 32,4 ºC a las 16:22:00 del día 18/09/2021
Temperatura del suelo mínima: 19 ºC a las 08:00:00 del día 18/09/2021
Humedad del suelo máxima: 52,6 % a las 17:05:00 del día 18/09/2021
Humedad del suelo mínima: 50,4 % a las 10:05:00 del día 18/09/2021

||Temperatura del suelo máxima últimos meses|| ---- ||Temperatura del suelo mínima últimos meses||

----||Humedad del suelo máxima últimos meses|| ---- ||Humedad del suelo mínima últimos meses||


Temperatura del suelo máxima

  • 1 - 32,4 ºC del día 18/09/2021
  • 2 - 31,8 ºC del día 17/09/2021
  • 3 - 31,9 ºC del día 16/09/2021
  • 4 - 32,5 ºC del día 15/09/2021
  • 5 - 29,1 ºC del día 14/09/2021
  • 6 - 26,8 ºC del día 13/09/2021
  • 7 - 33,3 ºC del día 12/09/2021
  • 8 - 32,8 ºC del día 11/09/2021
  • 9 - 33 ºC del día 10/09/2021
  • 10 - 32,1 ºC del día 09/09/2021
  • 11 - 33,3 ºC del día 08/09/2021
  • 12 - 32,6 ºC del día 07/09/2021
  • 13 - 31,7 ºC del día 06/09/2021
  • 14 - 32,5 ºC del día 05/09/2021
  • 15 - 32,3 ºC del día 04/09/2021
  • 16 - 32,1 ºC del día 03/09/2021
  • 17 - 31,2 ºC del día 02/09/2021
  • 18 - 29,6 ºC del día 01/09/2021
  • 19 - 31,6 ºC del día 31/08/2021
  • 20 - 33,1 ºC del día 30/08/2021
  • 21 - 34,1 ºC del día 29/08/2021
  • 22 - 35,3 ºC del día 28/08/2021
  • 23 - 35,4 ºC del día 27/08/2021
  • 24 - 33,8 ºC del día 26/08/2021
  • 25 - 33 ºC del día 25/08/2021
  • 26 - 31,8 ºC del día 24/08/2021
  • 27 - 33 ºC del día 23/08/2021
  • 28 - 33,5 ºC del día 22/08/2021
  • 29 - 33,7 ºC del día 21/08/2021
  • 30 - 33,3 ºC del día 20/08/2021
  • 31 - 32,4 ºC del día 19/08/2021
  • 32 - 32,7 ºC del día 18/08/2021
  • 33 - 33 ºC del día 17/08/2021
  • 34 - 35 ºC del día 16/08/2021
  • 35 - 38,2 ºC del día 15/08/2021
  • 36 - 37,1 ºC del día 14/08/2021
  • 37 - 35,5 ºC del día 13/08/2021
  • 38 - 36,1 ºC del día 12/08/2021
  • 39 - 33,4 ºC del día 11/08/2021
  • 40 - 30 ºC del día 10/08/2021
  • 41 - 33 ºC del día 09/08/2021
  • 42 - 33,4 ºC del día 08/08/2021
  • 43 - 36,1 ºC del día 07/08/2021
  • 44 - 36,7 ºC del día 06/08/2021
  • 45 - 35,3 ºC del día 05/08/2021
  • 46 - 35,7 ºC del día 04/08/2021
  • 47 - 33,2 ºC del día 03/08/2021
  • 48 - 32,8 ºC del día 02/08/2021
  • 49 - 33 ºC del día 01/08/2021
  • 50 - 34,5 ºC del día 31/07/2021
  • 51 - 36,2 ºC del día 30/07/2021
  • 52 - 33,5 ºC del día 29/07/2021
  • 53 - 33,2 ºC del día 28/07/2021
  • 54 - 33,3 ºC del día 27/07/2021
  • 55 - 32,1 ºC del día 26/07/2021
  • 56 - 35 ºC del día 25/07/2021
  • 57 - 37 ºC del día 24/07/2021
  • 58 - 36,2 ºC del día 23/07/2021
  • 59 - 35,3 ºC del día 22/07/2021
  • 60 - 34,9 ºC del día 21/07/2021

||Volver al inicio de la página||


Temperatura del suelo mínima

  • 1 - 19 ºC del día 18/09/2021
  • 2 - 19,3 ºC del día 17/09/2021
  • 3 - 19,5 ºC del día 16/09/2021
  • 4 - 20,1 ºC del día 15/09/2021
  • 5 - 21,3 ºC del día 14/09/2021
  • 6 - 21,8 ºC del día 13/09/2021
  • 7 - 19,4 ºC del día 12/09/2021
  • 8 - 20,4 ºC del día 11/09/2021
  • 9 - 20,3 ºC del día 10/09/2021
  • 10 - 19,4 ºC del día 09/09/2021
  • 11 - 20,3 ºC del día 08/09/2021
  • 12 - 20,8 ºC del día 07/09/2021
  • 13 - 21,3 ºC del día 06/09/2021
  • 14 - 21,2 ºC del día 05/09/2021
  • 15 - 21,9 ºC del día 04/09/2021
  • 16 - 22,9 ºC del día 03/09/2021
  • 17 - 20,9 ºC del día 02/09/2021
  • 18 - 22 ºC del día 01/09/2021
  • 19 - 23,4 ºC del día 31/08/2021
  • 20 - 23,6 ºC del día 30/08/2021
  • 21 - 22,6 ºC del día 29/08/2021
  • 22 - 20,8 ºC del día 28/08/2021
  • 23 - 20 ºC del día 27/08/2021
  • 24 - 21,1 ºC del día 26/08/2021
  • 25 - 21,4 ºC del día 25/08/2021
  • 26 - 22,2 ºC del día 24/08/2021
  • 27 - 20,1 ºC del día 23/08/2021
  • 28 - 21,2 ºC del día 22/08/2021
  • 29 - 21,3 ºC del día 21/08/2021
  • 30 - 22,6 ºC del día 20/08/2021
  • 31 - 23,2 ºC del día 19/08/2021
  • 32 - 24 ºC del día 18/08/2021
  • 33 - 24,3 ºC del día 17/08/2021
  • 34 - 23 ºC del día 16/08/2021
  • 35 - 22,3 ºC del día 15/08/2021
  • 36 - 22,9 ºC del día 14/08/2021
  • 37 - 22,2 ºC del día 13/08/2021
  • 38 - 22,8 ºC del día 12/08/2021
  • 39 - 23 ºC del día 11/08/2021
  • 40 - 21,9 ºC del día 10/08/2021
  • 41 - 24,3 ºC del día 09/08/2021
  • 42 - 23,3 ºC del día 08/08/2021
  • 43 - 22,8 ºC del día 07/08/2021
  • 44 - 22 ºC del día 06/08/2021
  • 45 - 22,5 ºC del día 05/08/2021
  • 46 - 20,3 ºC del día 04/08/2021
  • 47 - 20,2 ºC del día 03/08/2021
  • 48 - 22,3 ºC del día 02/08/2021
  • 49 - 20,7 ºC del día 01/08/2021
  • 50 - 19,8 ºC del día 31/07/2021
  • 51 - 22,6 ºC del día 30/07/2021
  • 52 - 21,9 ºC del día 29/07/2021
  • 53 - 20,4 ºC del día 28/07/2021
  • 54 - 20,1 ºC del día 27/07/2021
  • 55 - 23,1 ºC del día 26/07/2021
  • 56 - 20,1 ºC del día 25/07/2021
  • 57 - 22,3 ºC del día 24/07/2021
  • 58 - 20,5 ºC del día 23/07/2021
  • 59 - 20,5 ºC del día 22/07/2021
  • 60 - 22,3 ºC del día 21/07/2021

||Volver al inicio de la página||


Humedad del suelo máxima

  • 1 - 52,6 % del día 18/09/2021
  • 2 - 52,9 % del día 17/09/2021
  • 3 - 52,7 % del día 16/09/2021
  • 4 - 53,2 % del día 15/09/2021
  • 5 - 52,4 % del día 14/09/2021
  • 6 - 53,4 % del día 13/09/2021
  • 7 - 53,1 % del día 12/09/2021
  • 8 - 53,2 % del día 11/09/2021
  • 9 - 53,8 % del día 10/09/2021
  • 10 - 53,2 % del día 09/09/2021
  • 11 - 53,4 % del día 08/09/2021
  • 12 - 53,6 % del día 07/09/2021
  • 13 - 53,4 % del día 06/09/2021
  • 14 - 53,7 % del día 05/09/2021
  • 15 - 53,7 % del día 04/09/2021
  • 16 - 53,6 % del día 03/09/2021
  • 17 - 53,3 % del día 02/09/2021
  • 18 - 53,2 % del día 01/09/2021
  • 19 - 53,8 % del día 31/08/2021
  • 20 - 53,8 % del día 30/08/2021
  • 21 - 54 % del día 29/08/2021
  • 22 - 54,6 % del día 28/08/2021
  • 23 - 54,1 % del día 27/08/2021
  • 24 - 54,1 % del día 26/08/2021
  • 25 - 54 % del día 25/08/2021
  • 26 - 53,8 % del día 24/08/2021
  • 27 - 54 % del día 23/08/2021
  • 28 - 54,2 % del día 22/08/2021
  • 29 - 54,4 % del día 21/08/2021
  • 30 - 54,4 % del día 20/08/2021
  • 31 - 54,1 % del día 19/08/2021
  • 32 - 54,5 % del día 18/08/2021
  • 33 - 54,6 % del día 17/08/2021
  • 34 - 54,7 % del día 16/08/2021
  • 35 - 54,9 % del día 15/08/2021
  • 36 - 54,9 % del día 14/08/2021
  • 37 - 54,8 % del día 13/08/2021
  • 38 - 54,5 % del día 12/08/2021
  • 39 - 54,5 % del día 11/08/2021
  • 40 - 54,4 % del día 10/08/2021
  • 41 - 54,8 % del día 09/08/2021
  • 42 - 54,9 % del día 08/08/2021
  • 43 - 55,3 % del día 07/08/2021
  • 44 - 55,3 % del día 06/08/2021
  • 45 - 55,3 % del día 05/08/2021
  • 46 - 55,3 % del día 04/08/2021
  • 47 - 55,2 % del día 03/08/2021
  • 48 - 55,4 % del día 02/08/2021
  • 49 - 55,5 % del día 01/08/2021
  • 50 - 55,9 % del día 31/07/2021
  • 51 - 57 % del día 30/07/2021
  • 52 - 56 % del día 29/07/2021
  • 53 - 56,2 % del día 28/07/2021
  • 54 - 56 % del día 27/07/2021
  • 55 - 55,9 % del día 26/07/2021
  • 56 - 56,4 % del día 25/07/2021
  • 57 - 56,7 % del día 24/07/2021
  • 58 - 56,6 % del día 23/07/2021
  • 59 - 56,8 % del día 22/07/2021
  • 60 - 57 % del día 21/07/2021

||Volver al inicio de la página||


Humedad del suelo mínima

  • 1 - 50,4 % del día 18/09/2021
  • 2 - 50,5 % del día 17/09/2021
  • 3 - 50,5 % del día 16/09/2021
  • 4 - 50,4 % del día 15/09/2021
  • 5 - 50,5 % del día 14/09/2021
  • 6 - 51 % del día 13/09/2021
  • 7 - 50,7 % del día 12/09/2021
  • 8 - 51 % del día 11/09/2021
  • 9 - 51,1 % del día 10/09/2021
  • 10 - 51,1 % del día 09/09/2021
  • 11 - 51,2 % del día 08/09/2021
  • 12 - 51,2 % del día 07/09/2021
  • 13 - 51,3 % del día 06/09/2021
  • 14 - 51,3 % del día 05/09/2021
  • 15 - 51,3 % del día 04/09/2021
  • 16 - 51,3 % del día 03/09/2021
  • 17 - 51,3 % del día 02/09/2021
  • 18 - 47,3 % del día 01/09/2021
  • 19 - 51,7 % del día 31/08/2021
  • 20 - 51,7 % del día 30/08/2021
  • 21 - 51,8 % del día 29/08/2021
  • 22 - 51,8 % del día 28/08/2021
  • 23 - 51,7 % del día 27/08/2021
  • 24 - 51,8 % del día 26/08/2021
  • 25 - 51,8 % del día 25/08/2021
  • 26 - 51,9 % del día 24/08/2021
  • 27 - 51,9 % del día 23/08/2021
  • 28 - 51,9 % del día 22/08/2021
  • 29 - 52,1 % del día 21/08/2021
  • 30 - 52,1 % del día 20/08/2021
  • 31 - 52,1 % del día 19/08/2021
  • 32 - 52,3 % del día 18/08/2021
  • 33 - 52,5 % del día 17/08/2021
  • 34 - 52,6 % del día 16/08/2021
  • 35 - 52,5 % del día 15/08/2021
  • 36 - 52,5 % del día 14/08/2021
  • 37 - 52,5 % del día 13/08/2021
  • 38 - 52,5 % del día 12/08/2021
  • 39 - 52,5 % del día 11/08/2021
  • 40 - 52,5 % del día 10/08/2021
  • 41 - 52,7 % del día 09/08/2021
  • 42 - 52,7 % del día 08/08/2021
  • 43 - 52,7 % del día 07/08/2021
  • 44 - 52,8 % del día 06/08/2021
  • 45 - 52,9 % del día 05/08/2021
  • 46 - 52,8 % del día 04/08/2021
  • 47 - 52,9 % del día 03/08/2021
  • 48 - 53,3 % del día 02/08/2021
  • 49 - 53,4 % del día 01/08/2021
  • 50 - 53,5 % del día 31/07/2021
  • 51 - 53,6 % del día 30/07/2021
  • 52 - 53,6 % del día 29/07/2021
  • 53 - 53,6 % del día 28/07/2021
  • 54 - 53,5 % del día 27/07/2021
  • 55 - 54,1 % del día 26/07/2021
  • 56 - 54,1 % del día 25/07/2021
  • 57 - 54,2 % del día 24/07/2021
  • 58 - 54,3 % del día 23/07/2021
  • 59 - 54,4 % del día 22/07/2021
  • 60 - 54,5 % del día 21/07/2021

 

|| Temperatura Ambiente|| Humedad relativa|| Velocidad y dirección del viento|| Precipitación|| Radiación Solar Global y PAR|| Presión atmosférica|| Más información|| Volver a la página principal|| Volver al inicio de la página||


Estación Meteorológica de la Universidad de Murcia
http://estacion.um.es/
Informacion actualizada a: 20/09/2021 a las 21:58:00